When you browse on this site, cookies collect data to enhance your experience and personalize the content and advertising you see.
Visit our Privacy Policy to learn more. By continuing to use the site, you agree to this use of cookies and data.
  • En España
  • Lista de países
  • Para 7 días
  • Temperatura del agua
  • El tiempo en el mapa
  • Informadores
  • user-avatar
    Iniciar sesión

    Tiempo cada hora Longaví

    Hoy, 25 Enero, Sábado

    Tiempo Temperatura Precipitaciones Viento Presión Humedad
    00:00 +16°C° 0 mm 1 mps 748 mmHg 37%
    01:00 +15°C° 0 mm 2 mps 748 mmHg 43%
    02:00 +14°C° 0 mm 2 mps 748 mmHg 48%
    03:00 +13°C° 0 mm 1 mps 748 mmHg 53%
    04:00 +12°C° 0 mm 1 mps 748 mmHg 58%
    05:00 +14°C° 0 mm 1 mps 748 mmHg 53%
    06:00 +16°C° 0 mm 2 mps 748 mmHg 49%
    07:00 +18°C° 0 mm 2 mps 749 mmHg 44%
    08:00 +23°C° 0 mm 2 mps 748 mmHg 36%
    09:00 +27°C° 0 mm 2 mps 748 mmHg 27%
    10:00 +30°C° 0 mm 2 mps 748 mmHg 18%
    11:00 +34°C° 0 mm 3 mps 748 mmHg 15%
    12:00 +36°C° 0 mm 3 mps 748 mmHg 12%
    13:00 +39°C° 0 mm 3 mps 747 mmHg 9%
    14:00 +40°C° 0 mm 4 mps 747 mmHg 10%
    15:00 +40°C° 0 mm 4 mps 747 mmHg 10%
    16:00 +41°C° 0 mm 4 mps 747 mmHg 11%
    17:00 +37°C° 0 mm 4 mps 747 mmHg 16%
    18:00 +34°C° 0 mm 4 mps 748 mmHg 21%
    19:00 +30°C° 0 mm 4 mps 748 mmHg 27%
    20:00 +28°C° 0 mm 3 mps 748 mmHg 33%
    21:00 +25°C° 0 mm 3 mps 749 mmHg 40%
    22:00 +22°C° 0 mm 3 mps 749 mmHg 47%
    23:00 +21°C° 0 mm 3 mps 749 mmHg 54%

    Mañana, 26 Enero, Domingo

    Tiempo Temperatura Precipitaciones Viento Presión Humedad
    00:00 +19°C° 0 mm 2 mps 749 mmHg 61%
    01:00 +18°C° 0 mm 2 mps 748 mmHg 69%
    02:00 +17°C° 0 mm 2 mps 748 mmHg 74%
    03:00 +16°C° 0 mm 1 mps 748 mmHg 79%
    04:00 +15°C° 0 mm 1 mps 749 mmHg 84%
    05:00 +18°C° 0 mm 1 mps 749 mmHg 77%
    06:00 +19°C° 0 mm 1 mps 749 mmHg 70%
    07:00 +21°C° 0 mm 1 mps 749 mmHg 63%
    08:00 +25°C° 0 mm 2 mps 749 mmHg 52%
    09:00 +28°C° 0 mm 2 mps 749 mmHg 41%
    10:00 +33°C° 0 mm 3 mps 749 mmHg 30%
    11:00 +35°C° 0 mm 3 mps 749 mmHg 26%
    12:00 +37°C° 0 mm 3 mps 749 mmHg 22%
    13:00 +39°C° 0 mm 3 mps 749 mmHg 18%
    14:00 +41°C° 0 mm 4 mps 749 mmHg 18%
    15:00 +41°C° 0 mm 5 mps 748 mmHg 18%
    16:00 +41°C° 0 mm 5 mps 748 mmHg 17%
    17:00 +37°C° 0 mm 5 mps 748 mmHg 19%
    18:00 +35°C° 0 mm 5 mps 749 mmHg 22%
    19:00 +32°C° 0 mm 4 mps 749 mmHg 24%
    20:00 +29°C° 0 mm 4 mps 749 mmHg 29%
    21:00 +26°C° 0 mm 3 mps 749 mmHg 33%
    22:00 +24°C° 0 mm 3 mps 749 mmHg 38%
    23:00 +22°C° 0 mm 3 mps 749 mmHg 40%

    Pasado mañana, 27 Enero, Lunes

    Tiempo Temperatura Precipitaciones Viento Presión Humedad
    00:00 +21°C° 0 mm 3 mps 748 mmHg 42%
    01:00 +20°C° 0 mm 3 mps 748 mmHg 44%
    02:00 +19°C° 0 mm 2 mps 748 mmHg 47%
    03:00 +17°C° 0 mm 2 mps 747 mmHg 51%
    04:00 +16°C° 0 mm 2 mps 747 mmHg 55%
    05:00 +18°C° 0 mm 2 mps 747 mmHg 51%
    06:00 +19°C° 0 mm 2 mps 747 mmHg 47%
    07:00 +20°C° 0 mm 2 mps 747 mmHg 43%
    08:00 +25°C° 0 mm 3 mps 747 mmHg 35%
    09:00 +29°C° 0 mm 3 mps 747 mmHg 27%
    10:00 +34°C° 0 mm 3 mps 747 mmHg 18%
    11:00 +36°C° 0 mm 4 mps 747 mmHg 15%
    12:00 +38°C° 0 mm 4 mps 747 mmHg 12%
    13:00 +41°C° 0 mm 4 mps 746 mmHg 8%
    14:00 +41°C° 0 mm 5 mps 746 mmHg 8%
    15:00 +41°C° 0 mm 5 mps 746 mmHg 8%
    16:00 +41°C° 0 mm 5 mps 746 mmHg 7%
    17:00 +37°C° 0 mm 5 mps 747 mmHg 11%
    18:00 +34°C° 0 mm 4 mps 747 mmHg 14%
    19:00 +30°C° 0 mm 4 mps 747 mmHg 18%
    20:00 +27°C° 0 mm 3 mps 747 mmHg 22%
    21:00 +24°C° 0 mm 3 mps 747 mmHg 27%
    22:00 +20°C° 0 mm 2 mps 747 mmHg 32%
    23:00 +19°C° 0 mm 2 mps 747 mmHg 35%

    28 Enero, Martes

    Tiempo Temperatura Precipitaciones Viento Presión Humedad
    00:00 +19°C° 0 mm 1 mps 747 mmHg 38%
    01:00 +18°C° 0 mm 1 mps 746 mmHg 41%
    02:00 +16°C° 0 mm 1 mps 746 mmHg 48%
    03:00 +15°C° 0 mm 1 mps 746 mmHg 54%
    04:00 +14°C° 0 mm 1 mps 746 mmHg 60%
    05:00 +16°C° 0 mm 1 mps 746 mmHg 56%
    06:00 +18°C° 0 mm 2 mps 746 mmHg 51%
    07:00 +20°C° 0 mm 2 mps 746 mmHg 47%
    08:00 +24°C° 0 mm 2 mps 746 mmHg 39%
    09:00 +28°C° 0 mm 2 mps 746 mmHg 31%
    10:00 +33°C° 0 mm 3 mps 746 mmHg 23%
    11:00 +34°C° 0 mm 3 mps 746 mmHg 22%
    12:00 +36°C° 0 mm 3 mps 746 mmHg 21%
    13:00 +38°C° 0 mm 4 mps 745 mmHg 20%
    14:00 +37°C° 0 mm 5 mps 745 mmHg 22%
    15:00 +36°C° 0 mm 6 mps 745 mmHg 23%
    16:00 +35°C° 0 mm 7 mps 746 mmHg 25%
    17:00 +33°C° 0.1 mm 7 mps 746 mmHg 32%
    18:00 +29°C° 0.1 mm 6 mps 746 mmHg 40%
    19:00 +26°C° 0.1 mm 5 mps 746 mmHg 48%
    20:00 +23°C° 0 mm 4 mps 747 mmHg 53%
    21:00 +22°C° 0 mm 4 mps 747 mmHg 59%
    22:00 +20°C° 0 mm 3 mps 747 mmHg 65%
    23:00 +19°C° 0 mm 3 mps 747 mmHg 69%

    29 Enero, Miércoles

    Tiempo Temperatura Precipitaciones Viento Presión Humedad
    00:00 +17°C° 0 mm 3 mps 747 mmHg 74%
    01:00 +16°C° 0 mm 3 mps 747 mmHg 79%
    02:00 +13°C° 0 mm 3 mps 747 mmHg 79%
    03:00 +12°C° 0 mm 3 mps 747 mmHg 80%
    04:00 +10°C° 0 mm 3 mps 747 mmHg 80%
    05:00 +11°C° 0 mm 3 mps 747 mmHg 76%
    06:00 +12°C° 0 mm 3 mps 747 mmHg 72%
    07:00 +13°C° 0 mm 3 mps 748 mmHg 68%
    08:00 +18°C° 0 mm 3 mps 748 mmHg 57%
    09:00 +21°C° 0 mm 3 mps 748 mmHg 45%
    10:00 +26°C° 0 mm 3 mps 748 mmHg 33%
    11:00 +28°C° 0 mm 3 mps 747 mmHg 27%
    12:00 +31°C° 0 mm 3 mps 747 mmHg 20%
    13:00 +34°C° 0 mm 3 mps 747 mmHg 14%
    14:00 +34°C° 0 mm 3 mps 747 mmHg 11%
    15:00 +35°C° 0 mm 4 mps 747 mmHg 9%
    16:00 +35°C° 0 mm 4 mps 747 mmHg 6%
    17:00 +31°C° 0 mm 3 mps 747 mmHg 8%
    18:00 +28°C° 0 mm 3 mps 748 mmHg 10%
    19:00 +25°C° 0 mm 3 mps 748 mmHg 12%
    20:00 +22°C° 0 mm 3 mps 748 mmHg 16%
    21:00 +20°C° 0 mm 3 mps 748 mmHg 20%
    22:00 +17°C° 0 mm 3 mps 749 mmHg 24%
    23:00 +16°C° 0 mm 3 mps 748 mmHg 31%

    30 Enero, Jueves

    Tiempo Temperatura Precipitaciones Viento Presión Humedad
    00:00 +15°C° 0 mm 2 mps 748 mmHg 37%
    01:00 +13°C° 0 mm 2 mps 747 mmHg 44%
    02:00 +12°C° 0 mm 2 mps 747 mmHg 51%
    03:00 +10°C° 0 mm 2 mps 747 mmHg 58%
    04:00 +9°C° 0 mm 2 mps 747 mmHg 65%
    05:00 +12°C° 0 mm 2 mps 747 mmHg 58%
    06:00 +14°C° 0 mm 2 mps 746 mmHg 50%
    07:00 +15°C° 0 mm 2 mps 746 mmHg 43%
    08:00 +20°C° 0 mm 2 mps 746 mmHg 33%
    09:00 +25°C° 0 mm 2 mps 747 mmHg 23%
    10:00 +30°C° 0 mm 2 mps 747 mmHg 14%
    11:00 +33°C° 0 mm 3 mps 746 mmHg 11%
    12:00 +35°C° 0 mm 3 mps 746 mmHg 9%
    13:00 +38°C° 0 mm 3 mps 746 mmHg 7%
    14:00 +38°C° 0 mm 3 mps 746 mmHg 6%
    15:00 +39°C° 0 mm 3 mps 746 mmHg 5%
    16:00 +39°C° 0 mm 3 mps 746 mmHg 4%
    17:00 +35°C° 0 mm 3 mps 746 mmHg 8%
    18:00 +31°C° 0 mm 3 mps 746 mmHg 12%
    19:00 +27°C° 0 mm 3 mps 746 mmHg 15%
    20:00 +24°C° 0 mm 3 mps 747 mmHg 21%
    21:00 +20°C° 0 mm 2 mps 747 mmHg 26%
    22:00 +19°C° 0 mm 1 mps 747 mmHg 32%
    23:00 +18°C° 0 mm 1 mps 747 mmHg 36%
    Mostrar más